Location: Helstorf
(52.5868°N, 9.5862°E)
Time: 13:10:46
(UTC+00:00)

Cosmos 158 Rocket - Pass Details

Date: 15 May 2026
Orbit: 694 x 785 km, 74.0° (Epoch: 11 June)

Event Time Altitude Azimuth Distance (km) Brightness Sun altitude
Exits shadow 23:39:42 33° 180° (S) 1,292 4.6 -18.2°
Maximum altitude 23:42:01 64° 110° (ESE) 867 4.1 -18.2°
Drops below altitude 10° 23:47:17 10° 30° (NNE) 2,336 7.5 -18.1°
Sets 23:49:40 0° 28° (NNE) 3,257 8.6 -18.0°
